Regional Weather Roundup
Issued by NWS New Orleans/Baton Rouge, LA

Home | Current Version | Previous Version | Text Only | Print | Product List | Glossary Off
Versions: 1 2 3 4 5 6 7 8 9 10 11 12 13 14 15 16 17 18 19 20 21 22 23 24 25 26 27 28 29 30 31 32 33 34 35 36 37 38 39 40 41 42 43 44 45 46 47 48 49 50

086
ASUS44 KLIX 211301
RWRLIX
NEW ORLEANS REGIONAL WEATHER ROUNDUP
NATIONAL WEATHER SERVICE NEW ORLEANS LA
800 AM CDT THU AUG 21 2014

NOTE: "FAIR" INDICATES FEW OR NO CLOUDS BELOW 12,000 FEET WITH NO
      SIGNIFICANT WEATHER AND/OR OBSTRUCTIONS TO VISIBILITY.
      SKY/WX - SKY CONDITION AND SIGNIFICANT WEATHER.
      TMP - AIR TEMPERATURE.     DP    - DEWPOINT TEMPERATURE.
      RH  - RELATIVE HUMIDITY.   PRES  - PRESSURE.
      HI  - HEAT INDEX.          WCI   - WIND CHILL INDEX.

*  THESE STATIONS ARE NOT NWS OR FAA STATIONS AND ARE NOT UNDER
   NWS QUALITY CONTROL.

LAZ038-040-048-061>063-065>067-069-211400-
SOUTHEAST LOUISIANA

CITY           SKY/WX    TMP DP  RH WIND       PRES   REMARKS
N.O. AUDUBON   NOT AVBL
N.O. INTL ARPT PTSUNNY   83  76  79 CALM      30.13R
N.O. LAKEFRONT SUNNY     84  77  79 CALM      30.14R
N.O. DOWNTOWN*   N/A     84  73  70 CALM      30.14R
SLIDELL        SUNNY     78  74  87 CALM      30.13R
BATON ROUGE    PTSUNNY   77  73  87 CALM      30.12S
BOOTHVILLE     SUNNY     85  78  80 E3        30.14R HX  96
BELLE CHASSE   PTSUNNY   82  77  84 CALM      30.13R
BOGALUSA*      CLOUDY    76  73  90 CALM      30.16R
GALLIANO*      NOT AVBL
NEW ROADS*       N/A     76  75  96 CALM      30.12S
GONZALES*        N/A     77  77  99 CALM      30.12R
HAMMOND*       NOT AVBL
HOUMA*         SUNNY     79  75  89 CALM      30.12R
PORT FOURCHON* SUNNY     86  75  70 SW5       30.15R HX  95

$$

MSZ070-080>082-211400-
SOUTHERN MISSISSIPPI

CITY           SKY/WX    TMP DP  RH WIND       PRES   REMARKS
MCCOMB         MOSUNNY   78  71  79 CALM      30.15R
GULFPORT       SUNNY     82  77  84 N3        30.14R
BILOXI         SUNNY     82  77  85 N1        30.14R
PASCAGOULA     SUNNY     81  77  88 N3        30.14R

$$

COASTAL OBSERVATIONS
LAKE AND NEARSHORE STATIONS

STATION/POSITION TIME  TEMP    WIND        PRES    WAVE
                       AIR SEA DIR/SP/G            HT/PER
                 (UTC) (F)     (DEG/KT/KT) (MB)    (FT/S)
PASCAGOULA       1200   81     360/  4/  5 1020.1
WAVELAND YACHT   1200   81      CALM  /  2 1019.6
GRAND ISLE       1200   85 88  230/  1/  3 1020.8
SOUTHWEST PASS   1200   85 88  210/  2/  3 1020.7
NEW CANAL        1200   84 83   CALM  /  1 1020.7
SHELL BEACH      1200   84 82     CALM     1020.2

OFFSHORE STATIONS

STATION/POSITION TIME  TEMP    WIND        PRES    WAVE
                       AIR SEA DIR/SP/G            HT/PER
                 (UTC) (F)     (DEG/KT/KT) (MB)    (FT/S)
64 S DAUPHIN ISL 1227   86 87  220/  2/  4 1020.9

$$




USA.gov is the U.S. government's official web portal to all federal, state and local government web resources and services.